Torna al catalogo

METEOR 2-17 DEB

AttivoPO
NORAD 38539·DEBRIS·🇷🇺 Russia

Lanciato Jan 30, 1988 da Plesetsk Cosmodrome

Loading…

Prossimi Passaggi (prossime 24 ore)

TLE

AggiornatoSource: Space-Track

Epoca: Sep 14, 2026, 13:12 UTC

1 38539U 88005AS  26257.55068986  .00001256  00000-0  82222-3 0  9991
2 38539  82.5351 193.2600 0035648   7.8882 352.2840 14.01150053112923

Traccia METEOR 2-17 DEB in tempo reale con AllMySat

Download on the App Store